Tracking 30995 objects as of 7-Jul-2025
HD Live streaming from Space Station
objects crossing your sky now

FENGYUN 1C DEB

Track FENGYUN 1C DEB now!
10-day predictions


NORAD ID: 32432
Int'l Code: 1999-025DAU
Perigee: 604.6 km
Apogee: 864.3 km
Inclination: 98.2 °
Period: 99.3 minutes
Semi major axis: 7105 km
RCS: 0.0125 m2 (small)
Launch date: May 10, 1999
Source: People's Republic of China (PRC)
Launch site: Taiyaun Space Center, China (TSC)

Note: This is SATELLITE DEBRIS
Your satellite tracking list
Your tracking list is empty




NASA's NSSDC Master Catalog

Two Line Element Set (TLE):
1 32432U 99025DAU 25186.95073943  .00005941  00000-0  12618-2 0  9990
2 32432  98.1856 227.4987 0182729  77.1190 285.0346 14.49493904683783
Source of the keplerian elements: AFSPC